Valencia Aeropuerto, Spain

9:14 AM CET en Enero 24, 2019 (GMT +0100)
Manises

Tiempo Historia de LEVC - Enero, 2019

Change the Weather History Date:

Viernes, Enero 11, 2019

  Actual Average Record
Temperature  
Temperatura media 42 ° F -  
Temperatura máxima 55 ° F 59 ° F 73 ° F (2015)
Temperatura mínima 28 ° F 40 ° F 28 ° F (2019)
Degree Days  
Grados día de calefacción 24    
Moisture  
Punto de rocío 20 ° F    
Average Humidity 44    
Maximum Humidity 70    
Minimum Humidity 11    
Precipitación  
Precipitación 0.00 pul 0.05 pul - ()
Presión al nivel del mar  
Presión al nivel del mar 30.25 pul    
Viento  
Velocidad del viento 5 mph ()    
Velocidad máxima del viento 10 mph    
Max Gust Speed -    
Visibilidad 6.2 Millas    
Eventos      
Averages and records for this station are not official NWS values.
T = Trace of Precipitation, MM = Missing Value Source: Averaged Metar Reports

Daily Weather History Graph

Daily Weather History Graph

Search for Another Location

Airport or City:

Astronomía

Jan. 11, 2019 Salida Puesta
Hora real 8:21 AM CET 5:57 PM CET
Crepúsculo civil 7:52 AM CET 6:27 PM CET
Crepúsculo náutico 7:18 AM CET 7:00 PM CET
Crepúsculo astronómico 6:46 AM CET 7:33 PM CET
Luna 11:33 AM CET (1/11) 11:04 PM CET (1/11)
Horas de luz 10h 35m
Horas de luz
9h 35m
Creciente, 24% of the Moon is Illuminated
Ene 11
Creciente
Ene 14
Cuarto creciente
Ene 21
Luna llena
Ene 27
Cuarto menguante
Feb 4
Nueva

Hourly Weather History & Observations

Hora (CET) Temp. Vientos helados Punto de rocío Humedad Presión Visibilidad Wind Dir Velocidad del viento Velocidad de ráfagas Precip Eventos Condiciones
12:00 AM 38 ° F - 20 ° F 35% 30.18 pul - ONO 8.1 mph - -  
12:00 AM 39.2 ° F 33.6 ° F 21.2 ° F 49% 30.15 pul - ONO 8.1 mph - N/A   Despejado
12:30 AM 39.2 ° F 33.6 ° F 21.2 ° F 49% 30.15 pul - Oeste 8.1 mph - N/A   Despejado
1:00 AM 36 ° F - 19 ° F 37% 30.19 pul 25 mi Oeste 5.8 mph - -   Despejado
1:00 AM 37.4 ° F 32.8 ° F 21.2 ° F 52% 30.15 pul - ONO 5.8 mph - N/A   Despejado
1:30 AM 35.6 ° F 30.7 ° F 21.2 ° F 56% 30.18 pul - Oeste 5.8 mph - N/A   Despejado
2:00 AM 35 ° F - 19 ° F 39% 30.21 pul - Oeste 5.8 mph - -  
2:00 AM 35.6 ° F 30.7 ° F 21.2 ° F 56% 30.18 pul - Oeste 5.8 mph - N/A   Despejado
2:30 AM 33.8 ° F 27.7 ° F 21.2 ° F 60% 30.18 pul - Oeste 6.9 mph - N/A   Despejado
3:00 AM 32 ° F - 20 ° F 49% 30.22 pul - Oeste 5.8 mph - -  
3:00 AM 33.8 ° F 28.6 ° F 21.2 ° F 60% 30.18 pul - Oeste 5.8 mph - N/A   Despejado
3:30 AM 33.8 ° F - 21.2 ° F 60% 30.18 pul - Variable 1.2 mph - N/A   Despejado
4:00 AM 33.8 ° F 28.6 ° F 19.4 ° F 56% 30.18 pul - Oeste 5.8 mph - N/A   Despejado
4:30 AM 33.8 ° F 30.8 ° F 19.4 ° F 56% 30.21 pul - OSO 3.5 mph - N/A   Despejado
5:00 AM 32.0 ° F 24.8 ° F 19.4 ° F 60% 30.21 pul - Oeste 8.1 mph - N/A   Despejado
5:30 AM 32.0 ° F 24.8 ° F 19.4 ° F 60% 30.21 pul - OSO 8.1 mph - N/A   Despejado
6:00 AM 31 ° F - 18 ° F 45% 30.22 pul - OSO 10.4 mph - -  
6:00 AM 32.0 ° F 24.2 ° F 19.4 ° F 60% 30.18 pul - OSO 9.2 mph - N/A   Despejado
6:30 AM 30.2 ° F 23.4 ° F 19.4 ° F 64% 30.21 pul - Oeste 6.9 mph - N/A   Despejado
7:00 AM 29 ° F - 18 ° F 52% 30.23 pul 25 mi Oeste 8.1 mph - -   Despejado
7:00 AM 30.2 ° F 23.4 ° F 19.4 ° F 64% 30.21 pul - Oeste 6.9 mph - N/A   Despejado
7:30 AM 30.2 ° F 24.3 ° F 19.4 ° F 64% 30.21 pul - OSO 5.8 mph - N/A   Despejado
8:00 AM 32.0 ° F 25.6 ° F 19.4 ° F 60% 30.21 pul - Oeste 6.9 mph - N/A   Despejado
8:30 AM 30.2 ° F 23.4 ° F 19.4 ° F 64% 30.24 pul - Oeste 6.9 mph - N/A   Despejado
9:00 AM 31 ° F - 19 ° F 49% 30.27 pul - Oeste 5.8 mph - -  
9:00 AM 32.0 ° F 27.5 ° F 19.4 ° F 60% 30.24 pul - Oeste 4.6 mph - N/A   Despejado
9:30 AM 35.6 ° F 30.7 ° F 19.4 ° F 52% 30.24 pul - Oeste 5.8 mph - N/A   Despejado
10:00 AM 37.4 ° F 32.8 ° F 19.4 ° F 48% 30.27 pul - ONO 5.8 mph - N/A   Despejado
10:30 AM 42.8 ° F 38.6 ° F 17.6 ° F 36% 30.27 pul - OSO 6.9 mph - N/A   Despejado
11:00 AM 45 ° F - 17 ° F 20% 30.30 pul - SO 4.6 mph - -  
11:00 AM 44.6 ° F 42.2 ° F 17.6 ° F 34% 30.27 pul - SO 4.6 mph - N/A   Despejado
11:30 AM 46.4 ° F 44.3 ° F 17.6 ° F 32% 30.27 pul - OSO 4.6 mph - N/A   Despejado
12:00 PM 50 ° F - 18 ° F 16% 30.30 pul - SO 4.6 mph - -  
12:00 PM 50.0 ° F - 17.6 ° F 28% 30.27 pul - SO 3.5 mph - N/A   Despejado
12:30 PM 51.8 ° F - 15.8 ° F 24% 30.27 pul - SSO 3.5 mph - N/A   Despejado
1:00 PM 53 ° F - 16 ° F 12% 30.28 pul 25 mi SO 3.5 mph - -   Despejado
1:00 PM 51.8 ° F - 15.8 ° F 24% 30.27 pul - OSO 3.5 mph - N/A   Despejado
1:30 PM 53.6 ° F - 15.8 ° F 22% 30.27 pul - Variable 2.3 mph - N/A   Despejado
2:00 PM 54 ° F - 16 ° F 12% 30.26 pul - ESE 2.3 mph - -  
2:00 PM 51.8 ° F - 15.8 ° F 24% 30.24 pul - Variable 2.3 mph - N/A   Despejado
2:30 PM 53.6 ° F - 15.8 ° F 22% 30.24 pul - Variable 3.5 mph - N/A   Despejado
3:00 PM 53.6 ° F - 14.0 ° F 21% 30.24 pul 6.2 mi SE 4.6 mph - N/A   Parcialmente nublado
3:30 PM 55.4 ° F - 15.8 ° F 21% 30.24 pul 6.2 mi SSO 4.6 mph - N/A   Parcialmente nublado
4:00 PM 55 ° F - 15 ° F 11% 30.26 pul 25 mi SSE 5.8 mph - -   Despejado
4:00 PM 53.6 ° F - 17.6 ° F 24% 30.24 pul - Sur 5.8 mph - N/A   Despejado
4:30 PM 53.6 ° F - 19.4 ° F 26% 30.24 pul - SSE 5.8 mph - N/A   Despejado
5:00 PM 51.8 ° F - 19.4 ° F 28% 30.24 pul - SSE 5.8 mph - N/A   Despejado
5:30 PM 50.0 ° F - 21.2 ° F 32% 30.24 pul - SE 6.9 mph - N/A   Despejado
6:00 PM 47 ° F - 19 ° F 20% 30.27 pul - ESE 5.8 mph - -  
6:00 PM 48.2 ° F - 19.4 ° F 32% 30.27 pul - SE 5.8 mph - N/A   Despejado
6:30 PM 46.4 ° F 44.3 ° F 19.4 ° F 34% 30.27 pul - SE 4.6 mph - N/A   Despejado
7:00 PM 45 ° F - 20 ° F 23% 30.30 pul 25 mi NNE 2.3 mph - -   Despejado
7:00 PM 46.4 ° F - 19.4 ° F 34% 30.27 pul - Sin viento Sin viento - N/A   Despejado
7:30 PM 41.0 ° F - 23.0 ° F 49% 30.27 pul - Variable 2.3 mph - N/A   Despejado
8:00 PM 40 ° F - 23 ° F 38% 30.31 pul - NO 2.3 mph - -  
8:00 PM 41.0 ° F - 23.0 ° F 49% 30.30 pul - Sin viento Sin viento - N/A   Despejado
8:30 PM 39.2 ° F - 24.8 ° F 56% 30.30 pul - Variable 1.2 mph - N/A   Despejado
9:00 PM 38 ° F - 24 ° F 44% 30.33 pul - OSO 3.5 mph - -  
9:00 PM 39.2 ° F 37.0 ° F 24.8 ° F 56% 30.30 pul - SO 3.5 mph - N/A   Despejado
9:30 PM 35.6 ° F 31.7 ° F 26.6 ° F 70% 30.33 pul - ONO 4.6 mph - N/A   Despejado
10:00 PM 35 ° F - 25 ° F 56% 30.35 pul 25 mi ONO 3.5 mph - -   Despejado
10:00 PM 35.6 ° F 32.8 ° F 26.6 ° F 70% 30.33 pul - ONO 3.5 mph - N/A   Despejado
10:30 PM 35.6 ° F 32.8 ° F 26.6 ° F 70% 30.33 pul - Oeste 3.5 mph - N/A   Despejado
11:00 PM 34 ° F - 25 ° F 58% 30.37 pul - Oeste 4.6 mph - -  
11:00 PM 35.6 ° F 32.8 ° F 26.6 ° F 70% 30.33 pul - Oeste 3.5 mph - N/A   Despejado
11:30 PM 35.6 ° F 29.9 ° F 26.6 ° F 70% 30.36 pul - NO 6.9 mph - N/A   Despejado